Weather History for KJAX - April, 2013

Change the Weather History Date:

Sunday, April 28, 2013

  Actual Average Record
Temperature  
Mean Temperature 71 °F 70 °F  
Max Temperature 82 °F 82 °F 94 °F (1991)
Min Temperature 60 °F 57 °F 43 °F (1977)
Degree Days  
Heating Degree Days 0 1  
Month to date heating degree days 41 54  
Since 1 July heating degree days 1238 1343  
Cooling Degree Days 6 5  
Month to date cooling degree days 111 102  
Year to date cooling degree days 203 185  
Growing Degree Days 21 (Base 50)    
Moisture  
Dew Point 62 °F    
Average Humidity 76    
Maximum Humidity 100    
Minimum Humidity 51    
Precipitation  
Precipitation 0.00 in 0.07 in 2.65 in (1964)
Month to date precipitation 2.83 2.50  
Year to date precipitation 11.62 12.94  
Snow  
Snow 0.00 in 0.00 in 0.00 in (2002)
Month to date snowfall 0.0 0.0  
Since 1 July snowfall 0.0 T  
Snow Depth 0.00 in    
Sea Level Pressure  
Sea Level Pressure 30.09 in    
Wind  
Wind Speed 8 mph (SE)    
Max Wind Speed 18 mph    
Max Gust Speed 24 mph    
Visibility 10 miles    
Events      
T = Trace of Precipitation, MM = Missing Value Source: NWS Daily Summary

Daily Weather History Graph

Daily Weather History Graph

Search for Another Location

Airport or City:

Trip Planner

Search our weather history database for the weather conditions in past years. The results will help you decide how hot, cold, wet, or windy it might be!

Date:

Astronomy

Apr. 28, 2013 Rise Set
Actual Time 6:45 AM EDT 8:03 PM EDT
Civil Twilight 6:20 AM EDT 8:28 PM EDT
Nautical Twilight 5:50 AM EDT 8:58 PM EDT
Astronomical Twilight 5:18 AM EDT 9:30 PM EDT
Moon 11:24 PM EDT (4/28) 9:08 AM EDT (4/28)
Length of Visible Light 14h 08m
Length of Day
13h 17m
Waning Gibbous, 89% of the Moon is Illuminated
Apr 28
Waning Gibbous
May 2
Last Quarter
May 9
New
May 18
First Quarter
May 25
Full

Hourly Weather History & Observations

Time (EDT) Temp. Heat Index Dew Point Humidity Pressure Visibility Wind Dir Wind Speed Gust Speed Precip Events Conditions
12:56 AM 64.0 °F - 62.1 °F 93% 30.18 in 10.0 mi Calm Calm - N/A   Partly Cloudy
1:56 AM 61.0 °F - 60.1 °F 97% 30.14 in 8.0 mi SSE 5.8 mph - N/A   Partly Cloudy
2:56 AM 63.0 °F - 61.0 °F 93% 30.13 in 10.0 mi Calm Calm - N/A   Partly Cloudy
3:56 AM 62.1 °F - 60.1 °F 93% 30.11 in 10.0 mi Calm Calm - N/A   Partly Cloudy
4:56 AM 61.0 °F - 60.1 °F 97% 30.12 in 9.0 mi Calm Calm - N/A   Scattered Clouds
5:56 AM 62.1 °F - 60.1 °F 93% 30.10 in 10.0 mi Calm Calm - N/A   Mostly Cloudy
6:56 AM 62.1 °F - 60.1 °F 93% 30.13 in 8.0 mi Calm Calm - N/A   Mostly Cloudy
7:56 AM 66.9 °F - 64.0 °F 90% 30.14 in 8.0 mi Calm Calm - N/A   Mostly Cloudy
8:56 AM 70.0 °F - 66.9 °F 90% 30.15 in 10.0 mi ENE 3.5 mph - N/A   Mostly Cloudy
9:56 AM 75.0 °F - 62.1 °F 64% 30.17 in 10.0 mi SE 13.8 mph - N/A   Mostly Cloudy
10:56 AM 77.0 °F - 62.1 °F 60% 30.15 in 10.0 mi SSE 15.0 mph 21.9 mph N/A   Mostly Cloudy
11:56 AM 79.0 °F - 62.1 °F 56% 30.13 in 10.0 mi SE 13.8 mph - N/A   Mostly Cloudy
12:56 PM 80.1 °F 81.2 °F 62.1 °F 54% 30.10 in 10.0 mi SE 12.7 mph 20.7 mph N/A   Scattered Clouds
1:56 PM 80.1 °F 81.2 °F 62.1 °F 54% 30.10 in 10.0 mi SE 10.4 mph - N/A   Mostly Cloudy
2:56 PM 81.0 °F 81.9 °F 62.1 °F 52% 30.08 in 10.0 mi SE 15.0 mph - N/A   Mostly Cloudy
3:56 PM 81.0 °F 81.7 °F 61.0 °F 50% 30.04 in 10.0 mi SE 12.7 mph 20.7 mph N/A   Mostly Cloudy
4:56 PM 79.0 °F - 59.0 °F 50% 30.04 in 10.0 mi SE 15.0 mph 23.0 mph N/A   Mostly Cloudy
5:56 PM 77.0 °F - 61.0 °F 58% 30.03 in 10.0 mi SE 13.8 mph - N/A   Mostly Cloudy
6:56 PM 75.9 °F - 61.0 °F 60% 30.02 in 10.0 mi SE 12.7 mph - N/A   Mostly Cloudy
7:56 PM 73.0 °F - 60.1 °F 64% 30.02 in 10.0 mi SE 11.5 mph - N/A   Mostly Cloudy
8:56 PM 72.0 °F - 63.0 °F 73% 30.02 in 10.0 mi SE 15.0 mph - N/A   Mostly Cloudy
9:56 PM 71.1 °F - 63.0 °F 75% 30.02 in 10.0 mi SSE 11.5 mph - N/A   Mostly Cloudy
10:56 PM 69.1 °F - 62.1 °F 78% 30.04 in 10.0 mi SSE 8.1 mph - N/A   Mostly Cloudy
11:56 PM 69.1 °F - 63.0 °F 81% 30.04 in 10.0 mi South 4.6 mph - N/A   Mostly Cloudy